Time,TemperatureF,DewpointF,PressureIn,WindDirection,WindDirectionDegrees,WindSpeedMPH,WindSpeedGustMPH,Humidity,HourlyPrecipIn,Conditions,Clouds,dailyrainin,SoftwareType,DateUTC
2013-04-23 00:05:00,63.4,59.8,30.02,East,101,1.0,1.0,88,0.00,,,0.00,Wunderground v.1.15,2013-04-23 05:05:00,
2013-04-23 00:15:00,63.5,60.2,30.01,ESE,122,1.0,1.0,89,0.00,,,0.00,Wunderground v.1.15,2013-04-23 05:15:00,
2013-04-23 00:20:00,63.5,60.2,30.02,ESE,115,0.0,1.0,89,0.00,,,0.00,Wunderground v.1.15,2013-04-23 05:20:00,
2013-04-23 00:25:00,63.4,60.1,30.02,SE,132,1.0,1.0,89,0.00,,,0.00,Wunderground v.1.15,2013-04-23 05:25:00,
2013-04-23 00:30:00,63.3,60.3,30.01,SE,132,0.0,0.0,90,0.00,,,0.00,Wunderground v.1.15,2013-04-23 05:30:00,
2013-04-23 00:35:00,63.3,60.6,30.01,SE,132,0.0,0.0,91,0.00,,,0.00,Wunderground v.1.15,2013-04-23 05:35:00,
2013-04-23 00:40:00,63.2,60.5,30.01,SE,132,0.0,0.0,91,0.00,,,0.00,Wunderground v.1.15,2013-04-23 05:40:00,
2013-04-23 00:45:00,63.2,60.5,30.01,SE,129,0.0,0.0,91,0.00,,,0.00,Wunderground v.1.15,2013-04-23 05:45:00,
2013-04-23 00:50:00,63.3,60.6,30.01,SE,129,0.0,0.0,91,0.00,,,0.00,Wunderground v.1.15,2013-04-23 05:50:00,
2013-04-23 00:55:00,63.2,60.5,30.01,SE,124,0.0,1.0,91,0.00,,,0.00,Wunderground v.1.15,2013-04-23 05:55:00,
2013-04-23 01:00:00,63.2,60.5,30.01,SE,124,0.0,0.0,91,0.00,,,0.00,Wunderground v.1.15,2013-04-23 06:00:00,
2013-04-23 01:10:00,63.3,60.9,30.01,SE,134,1.0,1.0,92,0.00,,,0.00,Wunderground v.1.15,2013-04-23 06:10:00,
2013-04-23 01:15:00,63.4,61.0,30.01,East,91,1.0,2.0,92,0.00,,,0.00,Wunderground v.1.15,2013-04-23 06:15:00,
2013-04-23 01:20:00,63.5,61.1,30.01,ESE,119,1.0,2.0,92,0.00,,,0.00,Wunderground v.1.15,2013-04-23 06:20:00,
2013-04-23 01:25:00,63.6,61.2,30.01,ESE,108,2.0,2.0,92,0.00,,,0.00,Wunderground v.1.15,2013-04-23 06:25:00,
2013-04-23 01:30:00,63.7,61.3,30.01,East,100,2.0,2.0,92,0.00,,,0.00,Wunderground v.1.15,2013-04-23 06:30:00,
2013-04-23 01:40:00,63.8,61.4,30.01,ESE,102,2.0,2.0,92,0.00,,,0.00,Wunderground v.1.15,2013-04-23 06:40:00,
2013-04-23 01:45:00,63.8,61.4,30.01,SE,134,1.0,2.0,92,0.00,,,0.00,Wunderground v.1.15,2013-04-23 06:45:00,
2013-04-23 01:50:00,63.7,61.3,30.01,SE,140,1.0,1.0,92,0.00,,,0.00,Wunderground v.1.15,2013-04-23 06:50:00,
2013-04-23 01:55:00,63.7,61.6,30.01,SE,140,0.0,1.0,93,0.00,,,0.00,Wunderground v.1.15,2013-04-23 06:55:00,
2013-04-23 02:00:00,63.5,61.4,30.00,SE,140,0.0,1.0,93,0.00,,,0.00,Wunderground v.1.15,2013-04-23 07:00:00,
2013-04-23 02:05:00,63.4,61.3,30.00,SE,140,0.0,1.0,93,0.00,,,0.00,Wunderground v.1.15,2013-04-23 07:05:00,
2013-04-23 02:15:00,63.2,61.4,30.00,SE,140,0.0,1.0,94,0.00,,,0.00,Wunderground v.1.15,2013-04-23 07:15:00,
2013-04-23 02:20:00,63.0,61.2,30.00,SE,140,0.0,1.0,94,0.00,,,0.00,Wunderground v.1.15,2013-04-23 07:20:00,
2013-04-23 02:25:00,62.9,61.1,30.00,SE,140,0.0,1.0,94,0.00,,,0.00,Wunderground v.1.15,2013-04-23 07:25:00,
2013-04-23 02:30:00,62.6,60.8,30.00,SE,140,0.0,1.0,94,0.00,,,0.00,Wunderground v.1.15,2013-04-23 07:30:00,
2013-04-23 02:35:00,62.3,60.6,30.00,SE,140,0.0,1.0,94,0.00,,,0.00,Wunderground v.1.15,2013-04-23 07:35:00,
2013-04-23 02:45:00,62.3,60.8,30.00,SE,140,0.0,1.0,95,0.00,,,0.00,Wunderground v.1.15,2013-04-23 07:45:00,
2013-04-23 02:50:00,62.3,60.8,30.00,SE,140,0.0,1.0,95,0.00,,,0.00,Wunderground v.1.15,2013-04-23 07:50:00,
2013-04-23 02:55:00,62.2,61.0,30.00,SE,141,0.0,1.0,96,0.00,,,0.00,Wunderground v.1.15,2013-04-23 07:55:00,
2013-04-23 03:00:00,61.9,60.5,30.00,SE,140,0.0,1.0,95,0.00,,,0.00,Wunderground v.1.15,2013-04-23 08:00:00,
2013-04-23 03:05:00,61.6,60.2,29.99,SE,140,0.0,1.0,95,0.00,,,0.00,Wunderground v.1.15,2013-04-23 08:05:00,
2013-04-23 03:10:00,61.4,60.2,29.99,SE,140,0.0,1.0,96,0.00,,,0.00,Wunderground v.1.15,2013-04-23 08:10:00,
2013-04-23 03:20:00,61.4,60.5,29.99,SE,124,1.0,1.0,97,0.00,,,0.00,Wunderground v.1.15,2013-04-23 08:20:00,
2013-04-23 03:25:00,61.5,60.6,29.99,SE,124,1.0,1.0,97,0.00,,,0.00,Wunderground v.1.15,2013-04-23 08:25:00,
2013-04-23 03:30:00,61.0,59.9,29.99,SE,125,1.0,1.0,96,0.00,,,0.00,Wunderground v.1.15,2013-04-23 08:30:00,
2013-04-23 03:35:00,60.8,59.9,29.99,ESE,111,0.0,1.0,97,0.00,,,0.00,Wunderground v.1.15,2013-04-23 08:35:00,
2013-04-23 03:40:00,61.2,60.6,29.99,SE,134,1.0,1.0,98,0.00,,,0.00,Wunderground v.1.15,2013-04-23 08:40:00,
2013-04-23 03:50:00,61.4,60.8,29.98,SSE,150,1.0,1.0,98,0.00,,,0.00,Wunderground v.1.15,2013-04-23 08:50:00,
2013-04-23 03:55:00,61.4,60.8,29.99,SSE,166,1.0,1.0,98,0.00,,,0.00,Wunderground v.1.15,2013-04-23 08:55:00,
2013-04-23 04:00:00,61.7,61.1,29.98,SE,145,1.0,1.0,98,0.00,,,0.00,Wunderground v.1.15,2013-04-23 09:00:00,
2013-04-23 04:05:00,61.9,61.3,29.99,SE,143,1.0,1.0,98,0.00,,,0.00,Wunderground v.1.15,2013-04-23 09:05:00,
2013-04-23 04:10:00,62.1,61.5,29.99,SE,143,1.0,1.0,98,0.00,,,0.00,Wunderground v.1.15,2013-04-23 09:10:00,
2013-04-23 04:15:00,62.2,61.6,29.99,SE,143,1.0,1.0,98,0.00,,,0.00,Wunderground v.1.15,2013-04-23 09:15:00,
2013-04-23 04:20:00,62.2,61.6,29.99,SE,143,1.0,1.0,98,0.00,,,0.00,Wunderground v.1.15,2013-04-23 09:20:00,
2013-04-23 04:25:00,62.2,61.6,29.99,SE,139,1.0,1.0,98,0.00,,,0.00,Wunderground v.1.15,2013-04-23 09:25:00,
2013-04-23 04:30:00,62.2,61.6,29.99,SE,126,1.0,1.0,98,0.00,,,0.00,Wunderground v.1.15,2013-04-23 09:30:00,
2013-04-23 04:35:00,62.4,61.8,29.99,ESE,117,1.0,1.0,98,0.00,,,0.00,Wunderground v.1.15,2013-04-23 09:35:00,
2013-04-23 04:40:00,62.5,61.9,29.99,ESE,119,1.0,1.0,98,0.00,,,0.00,Wunderground v.1.15,2013-04-23 09:40:00,
2013-04-23 04:45:00,62.6,62.0,29.99,ESE,113,1.0,1.0,98,0.00,,,0.00,Wunderground v.1.15,2013-04-23 09:45:00,
2013-04-23 04:55:00,62.7,62.1,29.99,SE,128,1.0,1.0,98,0.00,,,0.00,Wunderground v.1.15,2013-04-23 09:55:00,
2013-04-23 05:00:00,62.6,62.0,29.99,SE,134,1.0,1.0,98,0.00,,,0.00,Wunderground v.1.15,2013-04-23 10:00:00,
2013-04-23 05:05:00,62.5,61.9,29.99,SE,134,1.0,1.0,98,0.00,,,0.00,Wunderground v.1.15,2013-04-23 10:05:00,
2013-04-23 05:10:00,62.6,62.0,29.99,SE,146,1.0,1.0,98,0.00,,,0.00,Wunderground v.1.15,2013-04-23 10:10:00,
2013-04-23 05:15:00,62.7,62.1,29.99,SSE,147,1.0,1.0,98,0.00,,,0.00,Wunderground v.1.15,2013-04-23 10:15:00,
2013-04-23 05:25:00,62.5,61.9,29.98,SE,135,1.0,1.0,98,0.00,,,0.00,Wunderground v.1.15,2013-04-23 10:25:00,
2013-04-23 05:30:00,62.2,61.6,29.98,SE,132,1.0,1.0,98,0.00,,,0.00,Wunderground v.1.15,2013-04-23 10:30:00,
2013-04-23 05:35:00,62.2,61.6,29.98,SE,143,1.0,1.0,98,0.00,,,0.00,Wunderground v.1.15,2013-04-23 10:35:00,
2013-04-23 05:40:00,62.1,61.5,29.98,SE,138,1.0,1.0,98,0.00,,,0.00,Wunderground v.1.15,2013-04-23 10:40:00,
2013-04-23 05:45:00,62.2,61.9,29.98,SE,140,1.0,1.0,99,0.00,,,0.00,Wunderground v.1.15,2013-04-23 10:45:00,
2013-04-23 05:50:00,62.6,62.3,29.99,SSE,149,1.0,1.0,99,0.00,,,0.00,Wunderground v.1.15,2013-04-23 10:50:00,
2013-04-23 06:00:00,62.8,62.5,29.99,SE,127,1.0,1.0,99,0.00,,,0.00,Wunderground v.1.15,2013-04-23 11:00:00,
2013-04-23 06:05:00,62.7,62.4,29.99,SE,140,1.0,1.0,99,0.00,,,0.00,Wunderground v.1.15,2013-04-23 11:05:00,
2013-04-23 06:10:00,62.9,62.6,29.99,SE,141,2.0,2.0,99,0.00,,,0.00,Wunderground v.1.15,2013-04-23 11:10:00,
2013-04-23 06:15:00,63.1,62.8,29.99,ESE,123,2.0,2.0,99,0.00,,,0.00,Wunderground v.1.15,2013-04-23 11:15:00,
2013-04-23 06:20:00,63.2,62.9,30.00,ESE,122,2.0,2.0,99,0.00,,,0.00,Wunderground v.1.15,2013-04-23 11:20:00,
2013-04-23 06:30:00,62.9,62.6,30.00,SE,127,1.0,1.0,99,0.00,,,0.00,Wunderground v.1.15,2013-04-23 11:30:00,
2013-04-23 06:35:00,63.1,62.8,30.00,SE,144,1.0,2.0,99,0.00,,,0.00,Wunderground v.1.15,2013-04-23 11:35:00,
2013-04-23 06:40:00,63.0,62.7,30.00,SE,131,1.0,2.0,99,0.00,,,0.00,Wunderground v.1.15,2013-04-23 11:40:00,
2013-04-23 06:45:00,63.2,62.9,30.00,SE,127,1.0,2.0,99,0.00,,,0.00,Wunderground v.1.15,2013-04-23 11:45:00,
2013-04-23 06:50:00,63.5,63.2,30.00,SE,145,2.0,2.0,99,0.00,,,0.00,Wunderground v.1.15,2013-04-23 11:50:00,
2013-04-23 06:55:00,63.8,63.5,30.01,SSE,165,2.0,2.0,99,0.00,,,0.00,Wunderground v.1.15,2013-04-23 11:55:00,
2013-04-23 07:05:00,64.3,64.0,30.01,ESE,120,1.0,1.0,99,0.00,,,0.00,Wunderground v.1.15,2013-04-23 12:05:00,
2013-04-23 07:10:00,64.5,64.2,30.01,SE,126,1.0,1.0,99,0.00,,,0.00,Wunderground v.1.15,2013-04-23 12:10:00,
2013-04-23 07:15:00,64.5,64.2,30.01,SE,141,1.0,1.0,99,0.00,,,0.00,Wunderground v.1.15,2013-04-23 12:15:00,
2013-04-23 07:20:00,64.9,64.6,30.01,SE,130,1.0,1.0,99,0.00,,,0.00,Wunderground v.1.15,2013-04-23 12:20:00,
2013-04-23 07:25:00,65.1,64.8,30.02,SE,125,0.0,1.0,99,0.00,,,0.00,Wunderground v.1.15,2013-04-23 12:25:00,
2013-04-23 07:35:00,65.3,65.0,30.02,SE,146,1.0,1.0,99,0.00,,,0.00,Wunderground v.1.15,2013-04-23 12:35:00,
2013-04-23 07:40:00,65.5,65.2,30.02,ESE,117,1.0,1.0,99,0.00,,,0.00,Wunderground v.1.15,2013-04-23 12:40:00,
2013-04-23 07:45:00,65.6,65.3,30.02,South,175,1.0,1.0,99,0.00,,,0.00,Wunderground v.1.15,2013-04-23 12:45:00,
2013-04-23 07:50:00,65.8,65.5,30.02,SE,136,1.0,2.0,99,0.00,,,0.00,Wunderground v.1.15,2013-04-23 12:50:00,
2013-04-23 07:55:00,66.0,65.7,30.02,SE,141,2.0,2.0,99,0.00,,,0.00,Wunderground v.1.15,2013-04-23 12:55:00,
2013-04-23 08:00:00,66.3,66.0,30.02,ESE,123,2.0,2.0,99,0.00,,,0.00,Wunderground v.1.15,2013-04-23 13:00:00,
2013-04-23 08:05:00,66.5,66.2,30.02,SE,136,2.0,2.0,99,0.00,,,0.00,Wunderground v.1.15,2013-04-23 13:05:00,
2013-04-23 08:10:00,66.7,66.4,30.02,SE,144,3.0,3.0,99,0.00,,,0.00,Wunderground v.1.15,2013-04-23 13:10:00,
2013-04-23 08:15:00,66.8,66.5,30.02,SE,139,3.0,3.0,99,0.00,,,0.00,Wunderground v.1.15,2013-04-23 13:15:00,
2013-04-23 08:20:00,67.0,66.7,30.02,SE,144,2.0,3.0,99,0.00,,,0.00,Wunderground v.1.15,2013-04-23 13:20:00,
2013-04-23 08:25:00,67.1,66.8,30.03,ESE,120,2.0,3.0,99,0.00,,,0.00,Wunderground v.1.15,2013-04-23 13:25:00,
2013-04-23 08:30:00,67.2,66.9,30.03,SSE,153,3.0,3.0,99,0.00,,,0.00,Wunderground v.1.15,2013-04-23 13:30:00,
2013-04-23 08:40:00,67.4,67.1,30.03,ESE,119,2.0,2.0,99,0.00,,,0.00,Wunderground v.1.15,2013-04-23 13:40:00,
2013-04-23 08:45:00,67.5,66.9,30.03,SSE,155,2.0,3.0,98,0.00,,,0.00,Wunderground v.1.15,2013-04-23 13:45:00,
2013-04-23 08:50:00,67.7,67.1,30.03,SE,141,3.0,3.0,98,0.00,,,0.00,Wunderground v.1.15,2013-04-23 13:50:00,
2013-04-23 08:55:00,67.9,67.3,30.03,ESE,117,3.0,3.0,98,0.00,,,0.00,Wunderground v.1.15,2013-04-23 13:55:00,
2013-04-23 09:00:00,68.0,67.1,30.03,SE,141,3.0,3.0,97,0.00,,,0.00,Wunderground v.1.15,2013-04-23 14:00:00,
2013-04-23 09:10:00,68.3,67.4,30.03,SE,128,3.0,3.0,97,0.00,,,0.00,Wunderground v.1.15,2013-04-23 14:10:00,
2013-04-23 09:15:00,68.6,67.7,30.03,SE,134,3.0,3.0,97,0.00,,,0.00,Wunderground v.1.15,2013-04-23 14:15:00,
2013-04-23 09:20:00,68.8,67.6,30.03,SE,132,3.0,3.0,96,0.00,,,0.00,Wunderground v.1.15,2013-04-23 14:20:00,
2013-04-23 09:25:00,69.0,67.8,30.03,East,101,3.0,5.0,96,0.00,,,0.00,Wunderground v.1.15,2013-04-23 14:25:00,
2013-04-23 09:30:00,69.2,67.7,30.03,SE,138,4.0,5.0,95,0.00,,,0.00,Wunderground v.1.15,2013-04-23 14:30:00,
2013-04-23 09:35:00,69.4,67.9,30.03,SE,124,3.0,5.0,95,0.00,,,0.00,Wunderground v.1.15,2013-04-23 14:35:00,
2013-04-23 09:45:00,69.8,68.0,30.04,SSE,150,4.0,4.0,94,0.00,,,0.00,Wunderground v.1.15,2013-04-23 14:45:00,
2013-04-23 09:50:00,70.1,68.3,30.04,SE,143,4.0,4.0,94,0.00,,,0.00,Wunderground v.1.15,2013-04-23 14:50:00,
2013-04-23 09:55:00,70.4,68.3,30.04,SE,141,3.0,6.0,93,0.00,,,0.00,Wunderground v.1.15,2013-04-23 14:55:00,
2013-04-23 10:00:00,70.5,68.4,30.04,SE,144,4.0,4.0,93,0.00,,,0.00,Wunderground v.1.15,2013-04-23 15:00:00,
2013-04-23 10:05:00,70.8,68.4,30.04,SSE,150,5.0,7.0,92,0.00,,,0.00,Wunderground v.1.15,2013-04-23 15:05:00,
2013-04-23 10:15:00,72.0,69.2,30.04,SE,141,5.0,5.0,91,0.00,,,0.00,Wunderground v.1.15,2013-04-23 15:15:00,
2013-04-23 10:20:00,72.5,69.1,30.04,SE,141,5.0,5.0,89,0.00,,,0.00,Wunderground v.1.15,2013-04-23 15:20:00,
2013-04-23 10:25:00,73.2,69.4,30.04,SSE,165,5.0,5.0,88,0.00,,,0.00,Wunderground v.1.15,2013-04-23 15:25:00,
2013-04-23 10:30:00,73.8,69.7,30.04,SSE,153,4.0,4.0,87,0.00,,,0.00,Wunderground v.1.15,2013-04-23 15:30:00,
2013-04-23 10:35:00,74.3,69.8,30.04,SSE,148,5.0,5.0,86,0.00,,,0.00,Wunderground v.1.15,2013-04-23 15:35:00,
2013-04-23 10:40:00,75.1,69.6,30.04,ESE,118,5.0,5.0,83,0.00,,,0.00,Wunderground v.1.15,2013-04-23 15:40:00,
2013-04-23 10:50:00,76.0,70.1,30.04,SE,141,7.0,7.0,82,0.00,,,0.00,Wunderground v.1.15,2013-04-23 15:50:00,
2013-04-23 10:55:00,76.3,70.0,30.04,SSE,152,7.0,7.0,81,0.00,,,0.00,Wunderground v.1.15,2013-04-23 15:55:00,
2013-04-23 11:00:00,76.9,70.3,30.04,SSE,161,7.0,8.0,80,0.00,,,0.00,Wunderground v.1.15,2013-04-23 16:00:00,
2013-04-23 11:05:00,77.0,70.4,30.04,SSE,160,7.0,8.0,80,0.00,,,0.00,Wunderground v.1.15,2013-04-23 16:05:00,
2013-04-23 11:10:00,76.9,69.9,30.04,SSE,162,6.0,9.0,79,0.00,,,0.00,Wunderground v.1.15,2013-04-23 16:10:00,
2013-04-23 11:20:00,76.3,69.3,30.03,South,185,9.0,9.0,79,0.00,,,0.00,Wunderground v.1.15,2013-04-23 16:20:00,
2013-04-23 11:25:00,77.4,70.0,30.03,South,174,8.0,9.0,78,0.00,,,0.00,Wunderground v.1.15,2013-04-23 16:25:00,
2013-04-23 11:30:00,77.4,69.6,30.03,South,171,7.0,10.0,77,0.00,,,0.00,Wunderground v.1.15,2013-04-23 16:30:00,
2013-04-23 11:35:00,78.2,70.4,30.03,South,176,7.0,12.0,77,0.00,,,0.00,Wunderground v.1.15,2013-04-23 16:35:00,
2013-04-23 11:40:00,78.2,69.6,30.03,South,187,9.0,9.0,75,0.00,,,0.00,Wunderground v.1.15,2013-04-23 16:40:00,
2013-04-23 11:45:00,78.5,70.3,30.03,South,191,9.0,9.0,76,0.00,,,0.00,Wunderground v.1.15,2013-04-23 16:45:00,
2013-04-23 11:55:00,79.9,69.7,30.02,SSE,150,9.0,13.0,71,0.00,,,0.00,Wunderground v.1.15,2013-04-23 16:55:00,
2013-04-23 12:00:00,80.7,69.6,30.02,SW,221,10.0,10.0,69,0.00,,,0.00,Wunderground v.1.15,2013-04-23 17:00:00,
2013-04-23 12:05:00,80.4,69.3,30.02,SW,225,9.0,10.0,69,0.00,,,0.00,Wunderground v.1.15,2013-04-23 17:05:00,
2013-04-23 12:10:00,79.5,68.4,30.01,South,180,9.0,9.0,69,0.00,,,0.00,Wunderground v.1.15,2013-04-23 17:10:00,
2013-04-23 12:15:00,79.2,69.0,30.01,South,186,9.0,9.0,71,0.00,,,0.00,Wunderground v.1.15,2013-04-23 17:15:00,
2013-04-23 12:20:00,79.8,69.1,30.01,SSE,158,8.0,15.0,70,0.00,,,0.00,Wunderground v.1.15,2013-04-23 17:20:00,
2013-04-23 12:25:00,79.9,68.4,30.01,South,188,10.0,15.0,68,0.00,,,0.00,Wunderground v.1.15,2013-04-23 17:25:00,
2013-04-23 12:35:00,80.6,69.1,30.01,South,171,11.0,14.0,68,0.00,,,0.00,Wunderground v.1.15,2013-04-23 17:35:00,
2013-04-23 12:40:00,80.9,69.8,30.01,SSE,150,9.0,9.0,69,0.00,,,0.00,Wunderground v.1.15,2013-04-23 17:40:00,
2013-04-23 12:45:00,80.8,68.4,30.00,SE,146,8.0,9.0,66,0.00,,,0.00,Wunderground v.1.15,2013-04-23 17:45:00,
2013-04-23 12:50:00,81.1,69.5,30.01,SSE,161,10.0,12.0,68,0.00,,,0.00,Wunderground v.1.15,2013-04-23 17:50:00,
2013-04-23 12:55:00,82.5,69.1,30.01,SSW,203,9.0,14.0,64,0.00,,,0.00,Wunderground v.1.15,2013-04-23 17:55:00,
2013-04-23 13:00:00,82.1,68.7,30.01,South,189,9.0,9.0,64,0.00,,,0.00,Wunderground v.1.15,2013-04-23 18:00:00,
2013-04-23 13:05:00,81.4,68.9,30.00,SSW,212,10.0,10.0,66,0.00,,,0.00,Wunderground v.1.15,2013-04-23 18:05:00,
2013-04-23 13:10:00,81.5,69.0,30.00,SSE,155,8.0,8.0,66,0.00,,,0.00,Wunderground v.1.15,2013-04-23 18:10:00,
2013-04-23 13:15:00,80.9,68.9,30.00,SSE,168,8.0,8.0,67,0.00,,,0.00,Wunderground v.1.15,2013-04-23 18:15:00,
2013-04-23 13:25:00,81.7,68.8,30.01,SSW,201,8.0,8.0,65,0.00,,,0.00,Wunderground v.1.15,2013-04-23 18:25:00,
2013-04-23 13:30:00,81.2,68.8,30.00,South,176,9.0,9.0,66,0.00,,,0.00,Wunderground v.1.15,2013-04-23 18:30:00,
2013-04-23 13:35:00,80.4,68.9,30.01,SSE,157,11.0,11.0,68,0.00,,,0.00,Wunderground v.1.15,2013-04-23 18:35:00,
2013-04-23 13:40:00,80.5,69.0,30.01,SW,224,9.0,9.0,68,0.00,,,0.00,Wunderground v.1.15,2013-04-23 18:40:00,
2013-04-23 13:45:00,81.0,69.0,30.01,SSW,195,7.0,9.0,67,0.00,,,0.00,Wunderground v.1.15,2013-04-23 18:45:00,
2013-04-23 13:50:00,81.3,69.3,30.00,South,169,8.0,8.0,67,0.00,,,0.00,Wunderground v.1.15,2013-04-23 18:50:00,
2013-04-23 14:00:00,82.0,68.6,30.00,SSE,163,8.0,8.0,64,0.00,,,0.00,Wunderground v.1.15,2013-04-23 19:00:00,
2013-04-23 14:05:00,82.1,69.2,30.00,South,186,9.0,9.0,65,0.00,,,0.00,Wunderground v.1.15,2013-04-23 19:05:00,
2013-04-23 14:10:00,82.1,68.3,29.99,South,169,8.0,8.0,63,0.00,,,0.00,Wunderground v.1.15,2013-04-23 19:10:00,
2013-04-23 14:15:00,81.4,68.5,29.99,SSE,165,8.0,9.0,65,0.00,,,0.00,Wunderground v.1.15,2013-04-23 19:15:00,
2013-04-23 14:20:00,81.1,68.7,29.99,SSE,167,10.0,10.0,66,0.00,,,0.00,Wunderground v.1.15,2013-04-23 19:20:00,
2013-04-23 14:25:00,81.2,69.2,29.99,SSE,148,10.0,10.0,67,0.00,,,0.00,Wunderground v.1.15,2013-04-23 19:25:00,
2013-04-23 14:35:00,82.6,68.7,29.99,SSE,150,7.0,11.0,63,0.00,,,0.00,Wunderground v.1.15,2013-04-23 19:35:00,
2013-04-23 14:40:00,82.8,69.4,29.98,South,179,8.0,8.0,64,0.00,,,0.00,Wunderground v.1.15,2013-04-23 19:40:00,
2013-04-23 14:45:00,82.0,69.5,29.98,SSE,162,9.0,9.0,66,0.00,,,0.00,Wunderground v.1.15,2013-04-23 19:45:00,
2013-04-23 14:50:00,81.3,69.3,29.98,SSE,168,8.0,8.0,67,0.00,,,0.00,Wunderground v.1.15,2013-04-23 19:50:00,
2013-04-23 14:55:00,81.2,69.2,29.98,SSE,163,8.0,8.0,67,0.00,,,0.00,Wunderground v.1.15,2013-04-23 19:55:00,
2013-04-23 15:05:00,80.8,69.2,29.98,South,186,7.0,7.0,68,0.00,,,0.00,Wunderground v.1.15,2013-04-23 20:05:00,
2013-04-23 15:10:00,81.3,68.9,29.98,SSW,210,8.0,8.0,66,0.00,,,0.00,Wunderground v.1.15,2013-04-23 20:10:00,
2013-04-23 15:15:00,81.8,68.9,29.97,South,176,9.0,9.0,65,0.00,,,0.00,Wunderground v.1.15,2013-04-23 20:15:00,
2013-04-23 15:20:00,82.7,68.8,29.97,SSE,165,7.0,7.0,63,0.00,,,0.00,Wunderground v.1.15,2013-04-23 20:20:00,
2013-04-23 15:25:00,82.0,69.1,29.97,SSE,164,7.0,7.0,65,0.00,,,0.00,Wunderground v.1.15,2013-04-23 20:25:00,
2013-04-23 15:30:00,81.2,68.3,29.97,SSW,211,8.0,8.0,65,0.00,,,0.00,Wunderground v.1.15,2013-04-23 20:30:00,
2013-04-23 15:40:00,82.7,68.8,29.97,SSW,202,7.0,8.0,63,0.00,,,0.00,Wunderground v.1.15,2013-04-23 20:40:00,
2013-04-23 15:45:00,82.9,68.1,29.96,SSE,167,8.0,13.0,61,0.00,,,0.00,Wunderground v.1.15,2013-04-23 20:45:00,
2013-04-23 15:50:00,82.7,68.8,29.96,South,173,9.0,10.0,63,0.00,,,0.00,Wunderground v.1.15,2013-04-23 20:50:00,
2013-04-23 15:55:00,82.5,68.2,29.95,SSE,156,10.0,10.0,62,0.00,,,0.00,Wunderground v.1.15,2013-04-23 20:55:00,
2013-04-23 16:00:00,82.5,67.2,29.95,South,187,10.0,12.0,60,0.00,,,0.00,Wunderground v.1.15,2013-04-23 21:00:00,
2013-04-23 16:10:00,83.2,69.3,29.95,South,181,8.0,10.0,63,0.00,,,0.00,Wunderground v.1.15,2013-04-23 21:10:00,
2013-04-23 16:15:00,82.9,68.1,29.95,South,188,9.0,10.0,61,0.00,,,0.00,Wunderground v.1.15,2013-04-23 21:15:00,
2013-04-23 16:20:00,83.0,68.6,29.94,South,176,8.0,8.0,62,0.00,,,0.00,Wunderground v.1.15,2013-04-23 21:20:00,
2013-04-23 16:25:00,82.6,68.3,29.94,SE,143,8.0,8.0,62,0.00,,,0.00,Wunderground v.1.15,2013-04-23 21:25:00,
2013-04-23 16:30:00,82.2,67.4,29.94,South,184,8.0,8.0,61,0.00,,,0.00,Wunderground v.1.15,2013-04-23 21:30:00,
2013-04-23 16:35:00,82.4,68.5,29.94,SSE,168,7.0,8.0,63,0.00,,,0.00,Wunderground v.1.15,2013-04-23 21:35:00,
2013-04-23 16:40:00,82.1,67.3,29.95,SSE,167,8.0,8.0,61,0.00,,,0.00,Wunderground v.1.15,2013-04-23 21:40:00,
2013-04-23 16:45:00,82.2,67.4,29.94,WSW,257,8.0,8.0,61,0.00,,,0.00,Wunderground v.1.15,2013-04-23 21:45:00,
2013-04-23 16:50:00,82.5,67.7,29.94,SSE,155,7.0,7.0,61,0.00,,,0.00,Wunderground v.1.15,2013-04-23 21:50:00,
2013-04-23 17:00:00,82.1,68.3,29.94,SSE,160,8.0,8.0,63,0.00,,,0.00,Wunderground v.1.15,2013-04-23 22:00:00,
2013-04-23 17:05:00,82.3,68.9,29.94,South,188,7.0,8.0,64,0.00,,,0.00,Wunderground v.1.15,2013-04-23 22:05:00,
2013-04-23 17:10:00,82.5,68.6,29.94,South,184,6.0,11.0,63,0.00,,,0.00,Wunderground v.1.15,2013-04-23 22:10:00,
2013-04-23 17:15:00,81.8,68.9,29.94,SSE,160,8.0,11.0,65,0.00,,,0.00,Wunderground v.1.15,2013-04-23 22:15:00,
2013-04-23 17:20:00,81.4,69.4,29.94,South,169,9.0,9.0,67,0.00,,,0.00,Wunderground v.1.15,2013-04-23 22:20:00,
2013-04-23 17:25:00,81.1,68.7,29.94,South,184,9.0,16.0,66,0.00,,,0.00,Wunderground v.1.15,2013-04-23 22:25:00,
2013-04-23 17:30:00,80.8,68.8,29.94,South,171,9.0,9.0,67,0.00,,,0.00,Wunderground v.1.15,2013-04-23 22:30:00,
2013-04-23 17:35:00,80.8,68.4,29.94,South,185,9.0,9.0,66,0.00,,,0.00,Wunderground v.1.15,2013-04-23 22:35:00,
2013-04-23 17:45:00,80.8,68.8,29.93,SSW,193,8.0,9.0,67,0.00,,,0.00,Wunderground v.1.15,2013-04-23 22:45:00,
2013-04-23 17:50:00,80.7,69.2,29.93,SSE,150,9.0,9.0,68,0.00,,,0.00,Wunderground v.1.15,2013-04-23 22:50:00,
2013-04-23 17:55:00,80.3,69.2,29.93,South,171,9.0,9.0,69,0.00,,,0.00,Wunderground v.1.15,2013-04-23 22:55:00,
2013-04-23 18:00:00,80.2,69.1,29.93,South,178,8.0,8.0,69,0.00,,,0.00,Wunderground v.1.15,2013-04-23 23:00:00,
2013-04-23 18:05:00,80.1,68.6,29.93,South,169,8.0,8.0,68,0.00,,,0.00,Wunderground v.1.15,2013-04-23 23:05:00,
2013-04-23 18:10:00,79.9,68.0,29.94,SSE,152,9.0,10.0,67,0.00,,,0.00,Wunderground v.1.15,2013-04-23 23:10:00,
2013-04-23 18:20:00,79.7,68.2,29.94,South,179,9.0,10.0,68,0.00,,,0.00,Wunderground v.1.15,2013-04-23 23:20:00,
2013-04-23 18:25:00,79.5,68.4,29.94,SSE,158,9.0,10.0,69,0.00,,,0.00,Wunderground v.1.15,2013-04-23 23:25:00,
2013-04-23 18:30:00,79.6,68.5,29.94,SSE,156,8.0,8.0,69,0.00,,,0.00,Wunderground v.1.15,2013-04-23 23:30:00,
2013-04-23 18:35:00,79.5,68.9,29.94,South,176,7.0,8.0,70,0.00,,,0.00,Wunderground v.1.15,2013-04-23 23:35:00,
2013-04-23 18:40:00,79.3,68.7,29.94,South,173,8.0,8.0,70,0.00,,,0.00,Wunderground v.1.15,2013-04-23 23:40:00,
2013-04-23 18:50:00,78.9,69.1,29.94,SSW,208,6.0,6.0,72,0.00,,,0.00,Wunderground v.1.15,2013-04-23 23:50:00,
2013-04-23 18:55:00,78.9,69.1,29.94,South,186,5.0,6.0,72,0.00,,,0.00,Wunderground v.1.15,2013-04-23 23:55:00,
2013-04-23 19:00:00,78.8,69.0,29.94,SSW,203,4.0,8.0,72,0.00,,,0.00,Wunderground v.1.15,2013-04-24 00:00:00,
2013-04-23 19:05:00,78.4,69.0,29.94,South,186,5.0,8.0,73,0.00,,,0.00,Wunderground v.1.15,2013-04-24 00:05:00,
2013-04-23 19:10:00,78.0,69.0,29.94,SSE,153,6.0,7.0,74,0.00,,,0.00,Wunderground v.1.15,2013-04-24 00:10:00,
2013-04-23 19:15:00,77.5,68.9,29.95,South,182,6.0,11.0,75,0.00,,,0.00,Wunderground v.1.15,2013-04-24 00:15:00,
2013-04-23 19:25:00,76.7,69.3,29.95,SSE,149,6.0,6.0,78,0.00,,,0.00,Wunderground v.1.15,2013-04-24 00:25:00,
2013-04-23 19:30:00,76.3,69.3,29.95,SW,220,5.0,5.0,79,0.00,,,0.00,Wunderground v.1.15,2013-04-24 00:30:00,
2013-04-23 19:35:00,76.0,69.0,29.95,South,184,5.0,5.0,79,0.00,,,0.00,Wunderground v.1.15,2013-04-24 00:35:00,
2013-04-23 19:40:00,75.7,69.1,29.95,SSW,206,5.0,5.0,80,0.00,,,0.00,Wunderground v.1.15,2013-04-24 00:40:00,
2013-04-23 19:45:00,75.3,69.1,29.96,SSE,167,4.0,5.0,81,0.00,,,0.00,Wunderground v.1.15,2013-04-24 00:45:00,
2013-04-23 19:55:00,74.9,69.0,29.96,South,173,4.0,5.0,82,0.00,,,0.00,Wunderground v.1.15,2013-04-24 00:55:00,
2013-04-23 20:00:00,74.7,69.2,29.96,South,169,4.0,4.0,83,0.00,,,0.00,Wunderground v.1.15,2013-04-24 01:00:00,
2013-04-23 20:05:00,74.5,69.0,29.96,South,179,4.0,4.0,83,0.00,,,0.00,Wunderground v.1.15,2013-04-24 01:05:00,
2013-04-23 20:10:00,74.4,69.2,29.97,South,169,3.0,4.0,84,0.00,,,0.00,Wunderground v.1.15,2013-04-24 01:10:00,
2013-04-23 20:15:00,74.2,69.4,29.97,South,175,4.0,4.0,85,0.00,,,0.00,Wunderground v.1.15,2013-04-24 01:15:00,
2013-04-23 20:20:00,74.0,69.2,29.97,South,176,4.0,5.0,85,0.00,,,0.00,Wunderground v.1.15,2013-04-24 01:20:00,
2013-04-23 20:30:00,73.7,69.2,29.97,South,169,4.0,4.0,86,0.00,,,0.00,Wunderground v.1.15,2013-04-24 01:30:00,
2013-04-23 20:35:00,73.7,69.2,29.97,South,174,4.0,5.0,86,0.00,,,0.00,Wunderground v.1.15,2013-04-24 01:35:00,
2013-04-23 20:40:00,73.7,69.6,29.98,South,170,6.0,6.0,87,0.00,,,0.00,Wunderground v.1.15,2013-04-24 01:40:00,
2013-04-23 20:45:00,73.6,69.5,29.98,South,182,6.0,6.0,87,0.00,,,0.00,Wunderground v.1.15,2013-04-24 01:45:00,
2013-04-23 20:50:00,73.6,69.5,29.98,South,173,7.0,7.0,87,0.00,,,0.00,Wunderground v.1.15,2013-04-24 01:50:00,
2013-04-23 20:55:00,73.5,69.7,29.98,South,187,7.0,9.0,88,0.00,,,0.00,Wunderground v.1.15,2013-04-24 01:55:00,
2013-04-23 21:00:00,73.5,69.7,29.98,South,180,6.0,7.0,88,0.00,,,0.00,Wunderground v.1.15,2013-04-24 02:00:00,
2013-04-23 21:05:00,73.4,69.6,29.98,SSE,156,5.0,7.0,88,0.00,,,0.00,Wunderground v.1.15,2013-04-24 02:05:00,
2013-04-23 21:10:00,73.4,69.6,29.98,SSE,152,5.0,7.0,88,0.00,,,0.00,Wunderground v.1.15,2013-04-24 02:10:00,
2013-04-23 21:15:00,73.3,69.5,29.98,SSE,162,5.0,7.0,88,0.00,,,0.00,Wunderground v.1.15,2013-04-24 02:15:00,
2013-04-23 21:20:00,73.2,69.4,29.99,South,171,5.0,5.0,88,0.00,,,0.00,Wunderground v.1.15,2013-04-24 02:20:00,
2013-04-23 21:30:00,73.1,69.7,29.99,SSE,164,6.0,6.0,89,0.00,,,0.00,Wunderground v.1.15,2013-04-24 02:30:00,
2013-04-23 21:35:00,73.1,69.7,29.99,SSE,165,5.0,6.0,89,0.00,,,0.00,Wunderground v.1.15,2013-04-24 02:35:00,
2013-04-23 21:45:00,73.0,69.6,30.00,SSE,157,4.0,5.0,89,0.00,,,0.00,Wunderground v.1.15,2013-04-24 02:45:00,
2013-04-23 21:50:00,73.1,69.7,30.00,SSE,167,4.0,4.0,89,0.00,,,0.00,Wunderground v.1.15,2013-04-24 02:50:00,
2013-04-23 21:55:00,73.1,69.7,30.00,SSE,168,4.0,4.0,89,0.00,,,0.00,Wunderground v.1.15,2013-04-24 02:55:00,
2013-04-23 22:05:00,73.0,69.6,30.00,SSE,156,4.0,6.0,89,0.00,,,0.00,Wunderground v.1.15,2013-04-24 03:05:00,
2013-04-23 22:10:00,73.0,69.6,30.00,SSE,155,5.0,7.0,89,0.00,,,0.00,Wunderground v.1.15,2013-04-24 03:10:00,
2013-04-23 22:15:00,73.0,69.6,30.00,SSW,195,6.0,7.0,89,0.00,,,0.00,Wunderground v.1.15,2013-04-24 03:15:00,
2013-04-23 22:20:00,72.9,69.5,30.00,South,173,6.0,6.0,89,0.00,,,0.00,Wunderground v.1.15,2013-04-24 03:20:00,
2013-04-23 22:30:00,72.7,69.6,30.00,SE,146,6.0,6.0,90,0.00,,,0.00,Wunderground v.1.15,2013-04-24 03:30:00,
2013-04-23 22:35:00,72.6,69.5,30.00,South,171,5.0,6.0,90,0.00,,,0.00,Wunderground v.1.15,2013-04-24 03:35:00,
2013-04-23 22:45:00,72.3,69.2,30.00,South,185,5.0,6.0,90,0.00,,,0.00,Wunderground v.1.15,2013-04-24 03:45:00,
2013-04-23 22:50:00,72.2,69.1,30.00,SSE,155,5.0,5.0,90,0.00,,,0.00,Wunderground v.1.15,2013-04-24 03:50:00,
2013-04-23 23:00:00,71.9,69.1,30.00,SSE,147,5.0,5.0,91,0.00,,,0.00,Wunderground v.1.15,2013-04-24 04:00:00,
2013-04-23 23:05:00,71.8,69.0,30.00,SSE,159,4.0,5.0,91,0.00,,,0.00,Wunderground v.1.15,2013-04-24 04:05:00,
2013-04-23 23:10:00,71.7,68.9,30.00,South,169,5.0,5.0,91,0.00,,,0.00,Wunderground v.1.15,2013-04-24 04:10:00,
2013-04-23 23:15:00,71.6,68.8,30.00,SSE,152,5.0,5.0,91,0.00,,,0.00,Wunderground v.1.15,2013-04-24 04:15:00,
2013-04-23 23:20:00,71.5,68.7,30.00,SSE,156,4.0,4.0,91,0.00,,,0.00,Wunderground v.1.15,2013-04-24 04:20:00,
2013-04-23 23:25:00,71.4,69.0,30.00,SSE,160,4.0,5.0,92,0.00,,,0.00,Wunderground v.1.15,2013-04-24 04:25:00,
2013-04-23 23:30:00,71.4,69.0,30.00,South,188,4.0,4.0,92,0.00,,,0.00,Wunderground v.1.15,2013-04-24 04:30:00,
2013-04-23 23:35:00,71.4,69.0,30.00,SE,136,4.0,5.0,92,0.00,,,0.00,Wunderground v.1.15,2013-04-24 04:35:00,
2013-04-23 23:40:00,71.4,69.0,30.00,SW,218,4.0,4.0,92,0.00,,,0.00,Wunderground v.1.15,2013-04-24 04:40:00,
2013-04-23 23:45:00,71.4,69.0,30.00,SSE,151,4.0,4.0,92,0.00,,,0.00,Wunderground v.1.15,2013-04-24 04:45:00,
2013-04-23 23:55:00,71.4,69.0,30.00,SSE,156,3.0,3.0,92,0.00,,,0.00,Wunderground v.1.15,2013-04-24 04:55:00,